Vertical_Velocity
-1 -0 -0 -1 -1 -2 -1 -1 -1 -2 -1 -1 0 -1 -1 -1 0 1 0 -1 -0 -1
-1 -1 -1 -1 -1 -2 -1 -0 0 0 -1 -1 -1 -1 -0 -0 0 -1 1 -0 -1 -1
0 0 -1 -2 -1 -1 -1 0 0 -1 -0 1 -2 -1 0 0 -2 -1 -0 -0 1 1
1 1 1 1 1 0 0 0 -1 2 -0 -1 -1 -2 -1 -2 -1 -1 -0 1 1 1
1 -0 0 1 0 1 1 -1 -0 -0 -3 -3 -2 -0 1 -2 -2 -3 -1 -0 -1 1
-2 0 0 -2 -2 -3 -1 -2 -1 -1 -1 -1 -2 -1 -1 -1 0 -1 -1 0 0 1
1 -1 2 -2 0 -2 0 -2 -3 -2 -1 -1 -1 1 0 -1 -3 -2 -0 -1 2 2
2 -3 -0 0 -1 -0 -3 -3 -2 -1 -1 -1 -2 -2 -2 -2 -0 3 3 2 1 3
-1 -0 -0 -2 -3 -3 -3 -2 -2 -1 -1 0 -0 -0 0 1 3 1 -0 -0 -1 -3
-1 -1 -2 -2 -2 -2 -1 1 2 1 -1 -3 -2 0 1 0 -1 0 0 1 0 4
-0 -0 -0 -1 -1 -0 -0 -1 -1 -1 -1 -1 0 1 -1 0 1 2 -1 -2 5 -2
-1 0 -2 -2 -1 -0 -1 -2 -1 0 3 2 1 1 0 0 -3 -2 -1 -1 0 -0
-2 -2 -1 0 -0 -1 -1 1 -1 -2 -0 3 3 0 -2 -1 -5 2 2 2 -3 1
-1 1 -0 0 0 -1 1 -1 0 0 4 2 0 1 -3 -5 -1 -5 -2 -4 -2 -0
Height
3117 3116 3114 3112 3109 3107 3104 3102 3099 3097 3094 3091 3088 3085 3082 3079 3076 3074 3071 3069 3066 3064
3111 3110 3108 3106 3103 3101 3098 3096 3093 3091 3088 3085 3082 3079 3075 3073 3070 3068 3065 3063 3060 3057
3105 3103 3101 3099 3096 3094 3092 3089 3087 3084 3081 3078 3075 3072 3069 3066 3063 3061 3058 3055 3052 3049
3098 3096 3093 3091 3090 3088 3085 3083 3080 3077 3075 3071 3068 3064 3061 3059 3056 3053 3050 3046 3044 3041
3091 3089 3087 3086 3083 3081 3079 3076 3073 3070 3067 3064 3060 3056 3053 3051 3048 3045 3043 3040 3036 3034
3084 3083 3081 3079 3077 3074 3071 3068 3065 3062 3059 3056 3052 3049 3046 3044 3041 3038 3036 3033 3029 3026
3078 3077 3074 3072 3069 3066 3063 3060 3056 3053 3051 3048 3045 3043 3039 3036 3034 3031 3027 3024 3021 3017
3071 3069 3067 3064 3061 3058 3055 3052 3049 3046 3044 3041 3039 3036 3032 3029 3026 3022 3018 3015 3012 3009
3064 3061 3059 3056 3053 3049 3047 3044 3041 3038 3036 3034 3031 3028 3024 3020 3017 3013 3010 3006 3003 2999
3056 3053 3050 3047 3044 3041 3039 3036 3033 3030 3028 3026 3023 3019 3016 3012 3009 3005 3001 2998 2994 2990
3047 3044 3040 3038 3035 3033 3030 3028 3025 3023 3019 3017 3014 3011 3008 3005 3001 2997 2993 2989 2985 2980
3038 3036 3033 3030 3027 3025 3022 3019 3017 3014 3011 3008 3007 3004 3001 2997 2993 2988 2983 2978 2975 2973
3029 3027 3025 3022 3019 3016 3014 3011 3008 3006 3004 3001 2999 2995 2992 2987 2983 2978 2974 2970 2968 2965
3020 3017 3015 3013 3010 3008 3005 3002 3000 2998 2996 2993 2990 2987 2983 2980 2976 2972 2967 2963 2960 2958